Flag for Poland Weather past 2 weeks in Zabrze, Poland

Now
34 °F

Snow showers. Partly sunny.


Feels Like: 23 °F
Forecast: 33 / 42 °F
Wind: 16 mph from West

Location: Katowice Airport

Current Time: Mar 3, 2015 at 12:42:44 PM

Latest Report: Mar 3, 2015 at 12:00 PM


Visibility: 2 mi

Pressure: 30.01 "Hg

Humidity: 93%

Dew point: 32 °F

Location of ZabrzeLocation

Historic Weather in Zabrze — Graph

°F

Zabrze temperature yesterday

Maximum temperature yesterday: 46 °F (at 12:30 PM)
Minimum temperature yesterday: 34 °F (at 10:00 PM)
Average temperature yesterday: 41 °F

Past Weeks' High & Low Weather Summary

 TemperatureHumidityPressure
High52 °F (Feb 23, 3:00 PM)100% (Feb 22, 2:30 AM)30.69 "Hg (Feb 22, 2:30 AM)
Low21 °F (Feb 17, 4:30 AM)29% (Feb 21, 1:00 PM)29.50 "Hg (Mar 2, 11:30 AM)
Average37 °F80%30.00 "Hg
* Reported Feb 16 11:00 AM — Mar 3 11:30 AM, Zabrze, Weather by CustomWeather, © 2015

Note: Actual official high and low records may vary slightly from our data, if they occured in-between our weather recording intervals... More about our weather records

Advertising

Zabrze weather history for previous 24 hours

 ConditionsComfort  
Time TempWeatherWind HumidityBarometerVisibility
11:30 AM
Tue, Mar 3
34 °FSnow flurries. Partly sunny.16 mph93%30.01 "Hg4 mi
11:00 AM34 °FSnow flurries. Fog.16 mph93%30.01 "Hg2 mi
10:30 AM34 °FSnow flurries. Fog.15 mph93%29.98 "Hg2 mi
10:00 AM34 °FSnow flurries. Partly sunny.13 mph93%29.98 "HgN/A
9:30 AM32 °FSnow flurries. Partly sunny.16 mph100%29.98 "Hg4 mi
9:00 AM32 °FSnow flurries. Partly sunny.14 mph100%29.95 "HgN/A
8:30 AM32 °FSnow flurries. Partly sunny.12 mph100%29.95 "HgN/A
8:00 AM32 °FBroken clouds.12 mph100%29.95 "HgN/A
7:30 AM32 °FLight snow. Broken clouds.13 mph100%29.92 "HgN/A
7:00 AM32 °FSnow flurries. Broken clouds.18 mph100%29.92 "Hg4 mi
6:30 AM32 °FSnow flurries. Ice fog.16 mph100%29.89 "Hg1 mi
6:00 AM32 °FSnow flurries. Partly cloudy.16 mph100%29.89 "Hg4 mi
5:30 AM32 °FSnow showers. Ice fog.17 mph100%29.86 "Hg1 mi
5:00 AM34 °FSnow flurries. Passing clouds.14 mph87%29.83 "HgN/A
4:30 AM36 °FClear.12 mph81%29.83 "Hg10 mi
4:00 AM34 °FClear.9 mph81%29.83 "Hg5 mi
3:30 AM34 °FClear.5 mph81%29.80 "Hg5 mi
3:00 AM34 °FPassing clouds.5 mph75%29.80 "Hg4 mi
2:30 AM34 °FLight snow. Passing clouds.5 mph75%29.80 "Hg4 mi
2:00 AM34 °FClear.7 mph75%29.80 "Hg4 mi
1:30 AM34 °FClear.8 mph75%29.80 "Hg10 mi
1:00 AM34 °FClear.9 mph81%29.80 "Hg10 mi
12:30 AM34 °FClear.7 mph81%29.80 "Hg10 mi
12:00 AM34 °FClear.6 mph81%29.74 "Hg10 mi
11:30 PM
Mon, Mar 2
34 °FClear.5 mph81%29.77 "Hg10 mi
11:00 PM36 °FClear.6 mph75%29.77 "Hg10 mi
10:30 PM36 °FClear.7 mph75%29.74 "Hg10 mi
10:00 PM34 °FClear.6 mph81%29.74 "Hg10 mi
9:30 PM36 °FClear.8 mph75%29.74 "Hg10 mi
9:00 PM36 °FClear.9 mph75%29.74 "Hg10 mi
8:30 PM36 °FClear.8 mph81%29.71 "Hg10 mi
8:00 PM36 °FPassing clouds.10 mph75%29.71 "HgN/A
7:30 PM37 °FClear.13 mph70%29.68 "Hg10 mi
7:00 PM37 °FClear.13 mph70%29.65 "Hg10 mi
6:30 PM39 °FPassing clouds.25 mph70%29.65 "HgN/A
6:00 PM39 °FSprinkles. Partly cloudy.15 mph75%29.62 "HgN/A
5:30 PM41 °FSprinkles. Partly cloudy.13 mph76%29.62 "HgN/A
5:00 PM43 °FThundershowers. Scattered clouds.10 mph71%29.56 "HgN/A
4:30 PM45 °FPartly sunny.8 mph76%29.53 "HgN/A
4:00 PM45 °FPassing clouds.9 mph87%29.53 "HgN/A
3:30 PM45 °FPartly sunny.12 mph81%29.53 "HgN/A
3:00 PM45 °FSprinkles. Partly sunny.16 mph81%29.53 "HgN/A
2:30 PM46 °FPassing clouds.14 mph76%29.53 "HgN/A
2:00 PM46 °FPassing clouds.15 mph82%29.53 "HgN/A
1:30 PM46 °FPassing clouds.15 mph82%29.50 "HgN/A
1:00 PM46 °FScattered clouds.15 mph87%29.50 "HgN/A
12:30 PM46 °FScattered clouds.14 mph82%29.50 "HgN/A
12:00 PM45 °FSunny.14 mph87%29.50 "Hg10 mi
Weather by CustomWeather, © 2015

See weather overviewHow to use our weather pages